Location: �perlecques
(50.8057°N, 2.1521°E)
Time: 11:33:30
(UTC+00:00)

KKS-1 - Pass Details

Date: 07 April 2023
Orbit: 633 x 644 km, 98.2° (Epoch: 28 May)

Event Time Altitude Azimuth Distance (km) Brightness Sun altitude
Rises 00:14:55 0° 1° (N) 2,944 ? -32.4°
Reaches altitude 10° 00:17:59 10° 338° (NNW) 2,031 ? -32.3°
Enters shadow 00:20:04 15° 309° (NW) 1,744 ? -32.3°
